Location: Bakov nad Jizerou
(50.4784°N, 14.9394°E)
Time: 23:32:51
(UTC+00:00)

Cosmos 1626 Rocket - Pass Details

Date: 16 June 2021
Orbit: 602 x 632 km, 82.5° (Epoch: 23 July)

Event Time Altitude Azimuth Distance (km) Brightness Sun altitude
Exits shadow 22:43:26 28° 157° (SSE) 1,197 4.5 -16.0°
Maximum altitude 22:45:32 52° 94° (E) 789 4.0 -16.1°
Drops below altitude 10° 22:49:51 10° 19° (NNE) 2,013 7.3 -16.1°
Sets 22:52:08 0° 15° (NNE) 2,921 8.5 -16.1°
